Regional Weather Roundup
Issued by NWS Cleveland, OH

Home | Current Version | Previous Version | Graphics & Text | Print | Product List | Glossary On
Versions: 1 2 3 4 5 6 7 8 9 10 11 12 13 14 15 16 17 18 19 20 21 22 23 24 25 26 27 28 29 30 31 32 33 34 35 36 37 38 39 40 41 42 43 44 45 46 47 48 49 50
000
ASUS41 KCLE 270110
RWRCLE
OHIO REGIONAL WEATHER ROUNDUP
NATIONAL WEATHER SERVICE CLEVELAND, OH
800 PM EST FRI DEC 26 2014

NOTE: "FAIR" INDICATES FEW OR NO CLOUDS BELOW 12,000 FEET WITH NO
SIGNIFICANT WEATHER AND/OR OBSTRUCTIONS TO VISIBILITY.

OHZ001>008-015>018-024>027-034-035-043-044-270200-
   NORTHWEST OHIO

CITY           SKY/WX    TMP DP  RH WIND       PRES   REMARKS
DEFIANCE       MOCLDY    42  38  85 S5        30.13R
FINDLAY        MOCLDY    41  35  79 S9        30.14R
TOLEDO EXPRESS CLOUDY    42  37  82 S6        30.12S
TOLEDO EXEC    MOCLDY    40  36  86 S8        30.14S
LIMA           MOCLDY    44  35  70 S8        30.14R
$$

OHZ009>014-019>023-028>033-038-089-270200-
   NORTHEAST OHIO

CITY           SKY/WX    TMP DP  RH WIND       PRES   REMARKS
CLE-HOPKINS    CLOUDY    44  35  70 S8        30.19S
CLE-LAKEFRONT  MOCLDY    46  35  65 S13       30.16S
CUY CO. ARPT   MOCLDY    46  37  71 SW15      30.18R
LORAIN-ELYRIA  CLOUDY    43  36  76 S9        30.17S
ASHTABULA      MOCLDY    43  33  68 SW9       30.18R
AKRON-CANTON   CLOUDY    41  33  73 S8        30.18S
WOOSTER        CLOUDY    40  34  79 S9        30.19S
MANSFIELD      MOCLDY    40  35  83 S9        30.16S
YOUNGSTOWN     CLOUDY    44  33  65 S8        30.19R
$$

OHZ042-051>053-060>062-070>072-077>081-270200-
  SOUTHWEST OHIO

CITY           SKY/WX    TMP DP  RH WIND       PRES   REMARKS
CINC-COVINGTON CLOUDY    48  32  53 S8        30.17S
CINC-LUNKEN    CLOUDY    44  35  70 SW3       30.19S
HAMILTON       CLOUDY    49  33  54 VRB3      30.19R
DAYTON         MOCLDY    45  35  68 S7        30.17S
WRIGHT-PAT AFB PTCLDY    42  35  76 S1        30.16F
DAYTON GENERAL MOCLDY    44  35  70 S7        30.16F
WILMINGTON     CLOUDY    42  34  73 S6        30.17F
$$

OHZ036-037-039>041-045>050-054>059-063>069-073>076-082>088-270200-
  CENTRAL AND SOUTHEAST OHIO

CITY           SKY/WX    TMP DP  RH WIND       PRES   REMARKS
COLUMBUS       CLOUDY    44  35  70 S7        30.19R
OSU AIRPORT    MOCLDY    44  35  70 S9        30.18R
BOLTON FIELD   CLOUDY    42  35  76 S6        30.19S
RICKENBACK AFB CLOUDY    41  35  78 S5        30.19S
NEWARK         CLOUDY    42  33  70 SW3       30.20R
MARION         PTCLDY    41  35  79 S8        30.17R
LANCASTER      CLOUDY    44  34  67 S7        30.20S
ZANESVILLE     CLOUDY    43  33  68 S7        30.20F
NEW PHILLY     MOCLDY    42  33  70 SE3       30.21S
$$


USA.gov is the U.S. government's official web portal to all federal, state and local government web resources and services.